Regional Weather Roundup
Issued by NWS State College, PA

Home | Current Version | Previous Version | Graphics & Text | Print | Product List | Glossary Off
Versions: 1 2 3 4 5 6 7 8 9 10 11 12 13 14 15 16 17 18 19 20 21 22 23 24 25 26 27 28 29 30 31 32 33 34 35 36 37 38 39 40 41 42 43 44 45 46 47 48 49 50

000
ASUS41 KCTP 280510
RWRCTP

REGIONAL WEATHER ROUNDUP
NATIONAL WEATHER SERVICE STATE COLLEGE PA
1200 AM EST SUN DEC 28 2014

Note: "fair" indicates few or no clouds below 12,000 feet with no
significant weather and/or obstructions to visibility.

* = STATION THAT DOES NOT REPORT PRECIPITATION /E.G. RAIN...SNOW...ETC/
    THUNDER OR FOG.

PAZ002>004-007>009-013>016-020>023-029>032-280600-
WESTERN PENNSYLVANIA

CITY           SKY/WX    TMP DP  RH WIND       PRES   REMARKS
ERIE           CLOUDY    48  43  82 SW10      29.94F
MEADVILLE      LGT RAIN  44  41  89 SW6       29.94F FOG
FRANKLIN*      CLOUDY    46  36  66 W8        29.97S
NEW CASTLE     LGT RAIN  46  45  93 SW6       29.99S FOG
BEAVER COUNTY  NOT AVBL
BUTLER*        CLOUDY    45  39  81 SW8       30.00S
PITTSBURGH INT LGT RAIN  45  41  86 W14       30.00R FOG
PITTSBURGH     CLOUDY    52  22  30 S6        29.96F
INDIANA*       CLOUDY    50  34  53 CALM      30.00F
LATROBE        CLOUDY    54  23  30 S8        29.99F
WASHINGTON CO* NOT AVBL
$$

PAZ004>006-010>012-017>019-024>028-033>037-041-042-045-046-049>053-280600-
CENTRAL PENNSYLVANIA

CITY           SKY/WX    TMP DP  RH WIND       PRES   REMARKS
BRADFORD       CLOUDY    47  32  56 SW8       29.93F
DUBOIS         LGT RAIN  45  40  82 SW14      29.95F
CLEARFIELD     LGT RAIN  48  33  56 W5        29.96F
JOHNSTOWN      CLOUDY    51  19  28 SW10      29.97F
ALTOONA        CLOUDY    49  28  44 SW3       29.97F
STATE COLLEGE  CLOUDY    51  28  41 SW5       29.97F
WILLIAMSPORT   CLOUDY    50  32  50 E9        29.97F
SELINSGROVE    MOCLDY    49  31  49 S3        30.01F
FT INDIANTOWN  CLOUDY    36  34  90 NE1       30.04F
CAPITAL CITY   CLOUDY    42  35  76 CALM      30.03F
HARRISBURG     MOCLDY    42  33  70 E8        30.03F
YORK           CLOUDY    40  33  76 CALM      30.04F
$$

PAZ038>040-043-044-047-048-054-055-060>062-067>071-280600-
EASTERN PENNSYLVANIA

CITY           SKY/WX    TMP DP  RH WIND       PRES   REMARKS
SCRANTON       CLOUDY    48  31  51 VRB6G17   29.98F
MOUNT POCONO   CLOUDY    44  28  53 SW12      30.01F
ALLENTOWN      MOCLDY    36  31  82 CALM      30.06F
QUAKERTOWN*    MOCLDY    36  32  87 CALM      30.08F
READING        CLOUDY    44  33  65 S3        30.05F
LANCASTER      MOCLDY    39  32  76 E5        30.06F
COATESVILLE    PTCLDY    45  37  76 CALM      30.07F
POTTSTOWN      MOCLDY    39  31  72 CALM      30.08F
BLUE BELL      PTCLDY    37  34  87 CALM      30.07F
DOYLESTOWN     PTCLDY    42  32  67 CALM      30.07F
WILLOW GROVE   NOT AVBL
NORTH PHILA    PTCLDY    44  34  67 CALM      30.10F
PHILADELPHIA   MOCLDY    42  36  79 CALM      30.09F
$$


USA.gov is the U.S. government's official web portal to all federal, state and local government web resources and services.